Henderson, KY

5:30 AM CDT on September 20, 2019 (GMT -0500)
Henderson City-County

Weather History for KEHR - May, 2019

Change the Weather History Date:

Sunday, May 12, 2019

  Actual Average Record
Temperature  
Mean Temperature 54 °F -  
Max Temperature 57 °F 76 °F 89 °F (1944)
Min Temperature 50 °F 55 °F 36 °F (1989)
Degree Days  
Heating Degree Days 12    
Growing Degree Days 4 (Base 50)    
Moisture  
Dew Point 51 °F    
Average Humidity 92    
Maximum Humidity 100    
Minimum Humidity 77    
Precipitation  
Precipitation 0.14 in - - ()
Sea Level Pressure  
Sea Level Pressure 29.83 in    
Wind  
Wind Speed 7 mph (NW)    
Max Wind Speed 10 mph    
Max Gust Speed -    
Visibility 8 miles    
Events Rain    
Averages and records for this station are not official NWS values.
T = Trace of Precipitation, MM = Missing Value Source: NWS Daily Summary

Daily Weather History Graph

Daily Weather History Graph

Search for Another Location

Airport or City:

Astronomy

May. 12, 2019 Rise Set
Actual Time 5:43 AM CDT 7:51 PM CDT
Civil Twilight 5:14 AM CDT 8:20 PM CDT
Nautical Twilight 4:38 AM CDT 8:56 PM CDT
Astronomical Twilight 4:00 AM CDT 9:34 PM CDT
Moon 1:01 PM CDT (5/12) 2:13 AM CDT (5/12)
Length of Visible Light 15h 05m
Length of Day
14h 07m
First Quarter, 58% of the Moon is Illuminated
May 12
First Quarter
May 18
Full
May 26
Last Quarter
Jun 3
New
Jun 10
First Quarter

Hourly Weather History & Observations

Time (CDT) Temp. Dew Point Humidity Pressure Visibility Wind Dir Wind Speed Gust Speed Precip Events Conditions
12:56 AM 53.1 °F 52.0 °F 96% 29.83 in 8.0 mi WNW 8.1 mph - N/A   Overcast
1:29 AM 53.6 °F 51.8 °F 94% 29.78 in 5.0 mi WNW 6.9 mph - N/A   Overcast
1:56 AM 53.1 °F 52.0 °F 96% 29.81 in 4.0 mi WNW 8.1 mph - N/A   Overcast
2:37 AM 53.6 °F 51.8 °F 94% 29.78 in 2.5 mi WNW 9.2 mph - N/A   Overcast
2:56 AM 53.1 °F 52.0 °F 96% 29.81 in 2.0 mi NW 8.1 mph - 0.00 in Rain Light Rain
3:56 AM 53.1 °F 52.0 °F 96% 29.81 in 3.0 mi NW 5.8 mph - 0.00 in   Overcast
4:56 AM 52.0 °F 52.0 °F 100% 29.82 in 4.0 mi NW 5.8 mph - 0.00 in   Overcast
5:44 AM 51.8 °F 51.8 °F 100% 29.79 in 8.0 mi NW 4.6 mph - N/A   Overcast
5:56 AM 53.1 °F 52.0 °F 96% 29.83 in 9.0 mi NW 4.6 mph - N/A   Overcast
6:56 AM 53.1 °F 51.1 °F 93% 29.83 in 10.0 mi NNW 5.8 mph - N/A   Overcast
7:28 AM 53.6 °F 51.8 °F 94% 29.79 in 4.0 mi NW 4.6 mph - 0.08 in Rain Light Rain
7:45 AM 53.6 °F 51.8 °F 94% 29.80 in 10.0 mi WNW 4.6 mph - 0.08 in Rain Light Rain
7:56 AM 53.1 °F 52.0 °F 96% 29.85 in 9.0 mi WNW 4.6 mph - 0.09 in Rain Light Rain
8:08 AM 53.6 °F 51.8 °F 94% 29.80 in 8.0 mi North 3.5 mph - 0.01 in Rain Light Rain
8:23 AM 53.6 °F 51.8 °F 94% 29.79 in 8.0 mi NNE 5.8 mph - 0.04 in Rain Light Rain
8:47 AM 53.6 °F 51.8 °F 94% 29.82 in 10.0 mi NW 5.8 mph - 0.04 in Rain Light Rain
8:56 AM 53.1 °F 51.1 °F 93% 29.86 in 10.0 mi NW 6.9 mph - 0.04 in   Mostly Cloudy
9:21 AM 53.6 °F 51.8 °F 94% 29.82 in 10.0 mi NW 5.8 mph - N/A   Overcast
9:56 AM 52.0 °F 51.1 °F 97% 29.86 in 5.0 mi NNW 5.8 mph - N/A   Overcast
10:03 AM 51.8 °F 51.8 °F 100% 29.82 in 4.0 mi NW 4.6 mph - N/A   Overcast
10:44 AM 53.6 °F 51.8 °F 94% 29.83 in 8.0 mi NW 5.8 mph - N/A   Overcast
10:56 AM 53.1 °F 51.1 °F 93% 29.87 in 9.0 mi West 5.8 mph - N/A   Overcast
11:56 AM 54.0 °F 51.1 °F 90% 29.86 in 10.0 mi WNW 6.9 mph - N/A   Overcast
12:12 PM 53.6 °F 51.8 °F 94% 29.82 in 10.0 mi West 6.9 mph - N/A   Overcast
12:56 PM 57.0 °F 50.0 °F 77% 29.84 in 10.0 mi West 8.1 mph - N/A   Overcast
1:56 PM 55.9 °F 51.1 °F 84% 29.85 in 10.0 mi NW 8.1 mph - N/A   Overcast
2:56 PM 55.9 °F 51.1 °F 84% 29.84 in 10.0 mi WNW 8.1 mph - N/A   Overcast
3:56 PM 55.9 °F 51.1 °F 84% 29.83 in 10.0 mi West 8.1 mph - N/A   Overcast
4:56 PM 55.0 °F 51.1 °F 86% 29.84 in 9.0 mi WNW 8.1 mph - 0.00 in   Overcast
5:20 PM 55.4 °F 51.8 °F 88% 29.81 in 4.0 mi WNW 9.2 mph - 0.00 in Rain Light Rain
5:39 PM 53.6 °F 51.8 °F 94% 29.82 in 4.0 mi WNW 9.2 mph - 0.00 in Rain Light Rain
5:56 PM 53.1 °F 52.0 °F 96% 29.85 in 6.0 mi WNW 9.2 mph - 0.01 in Rain Light Rain
6:56 PM 53.1 °F 51.1 °F 93% 29.86 in 8.0 mi WNW 9.2 mph - 0.00 in   Overcast
7:19 PM 53.6 °F 50.0 °F 88% 29.82 in 10.0 mi WNW 6.9 mph - N/A   Overcast
7:35 PM 53.6 °F 51.8 °F 94% 29.82 in 10.0 mi WNW 6.9 mph - N/A   Overcast
7:56 PM 53.1 °F 50.0 °F 89% 29.87 in 10.0 mi NW 8.1 mph - N/A   Overcast
8:14 PM 53.6 °F 51.8 °F 94% 29.83 in 10.0 mi WNW 5.8 mph - N/A   Overcast
8:26 PM 53.6 °F 50.0 °F 88% 29.83 in 10.0 mi WNW 8.1 mph - N/A   Overcast
8:48 PM 51.8 °F 50.0 °F 94% 29.84 in 10.0 mi NW 10.4 mph - N/A   Overcast
8:56 PM 52.0 °F 48.9 °F 89% 29.88 in 10.0 mi NW 6.9 mph - N/A   Overcast
9:30 PM 51.8 °F 48.2 °F 88% 29.85 in 10.0 mi NW 3.5 mph - N/A   Mostly Cloudy
9:56 PM 50.0 °F 48.0 °F 93% 29.90 in 10.0 mi Calm Calm - N/A   Clear
10:17 PM 51.8 °F 48.2 °F 88% 29.87 in 10.0 mi WNW 3.5 mph - N/A   Mostly Cloudy
10:51 PM 50.0 °F 48.2 °F 94% 29.86 in 10.0 mi NW 3.5 mph - N/A   Partly Cloudy
10:56 PM 50.0 °F 48.0 °F 93% 29.90 in 10.0 mi NNW 4.6 mph - N/A   Partly Cloudy
11:56 PM 50.0 °F 48.0 °F 93% 29.91 in 10.0 mi WNW 4.6 mph - N/A   Scattered Clouds